sat.trackr.live / text

‹ back to catalog

STARLINK-30892

NORAD 58366 · 2023-177R

PAYLOAD ACTIVE UNKNOWN

§ Identity

Operator
Country
US
Launch date
2023-11-18
Launch site
AFETR
Launch vehicle
Mass (kg)
RCS (m²)

Purposes: comms

External: N2YO · Heavens-Above · Gunter

§ Orbital elements

Epoch: 2026-05-24T18:40:41.379744Z

Period
94.27 min
Inclination
43.0019°
Eccentricity
0.0001444
Mean motion
15.27568296 rev/d
Perigee alt
482.1 km
Apogee alt
484.1 km
Semi-major
6,861.2 km
B*
4.5680e-6
RAAN
280.9408°
Arg perigee
263.2901°
Mean anomaly
96.7787°
Rev number
13,987

§ Raw data

STARLINK-308921 58366U 23177R   26144.77825671 -.00000136  00000+0  45680-5 0  99962 58366  43.0019 280.9408 0001444 263.2901  96.7787 15.27568296139877

JSON: /api/v1/satellites/58366 · /tle

For live sub-satellite position, see the globe view (requires WebGL).

§ Visibility from observer

Set your observer location to see the next 7 days of passes ≥ 10°. The values pass through the URL so the page stays shareable.

No JS? Fill the form by hand. The geolocation button needs JavaScript.